Content
SEND FEEDBACK

Daily
Averages
Monthly
Summary
United States of America

ST. LOUIS, MISSOURI


Home > North America > United States > Missouri
Elevation: 535 feet     Latitude: 38 45N     Longitude: 090 22W

WEATHER
 
SELECT A DAY
Number of Records: 196,364;   Date Range: 1/1/95 - 7/26/14
 
SHARE

PRINT THIS DATA

[ ← Previous Day ]
WEATHER ALMANAC - MAY 18, 2013
[ Next Day → ]
[ °C ]   °F
Weather ElementAverageHighLow
Temperature66.8 °F82.4 °F (4:54 pm)59 °F (4:31 am)
Dewpoint61.5 °F64.9 °F (8:54 am)57.2 °F (3:37 am)
Humidity84.6 %100 % (3:06 am)54 % (4:54 pm)
Barometer29.95 in30.01 in (8:31 am)29.86 in (9:54 pm)
Wind Speed2.4 mph10.4 mph (9:54 pm)
Weather ElementAverage
Visibility3.9 mi
Wind DirectionNE (50.6 °)

Weather ElementTotal
Precipitation0.02 in
Cooling Degree Days5.7 (Base 65)
Growing Degree Days20.7 (Base 50)
Averaged from 51 records on May 18, 2013
WEATHER CONDITIONS BREAKOUT
WIND DIRECTION BREAKOUT
WEATHER BY HOUR - MAY 18, 2013
[ °C ]   °F
Local TimeTemperatureDewpointHumidityBarometerVisibilityWind DirectionWind SpeedGust SpeedPrecipitationEventsConditions
1:34 AM62.6 °F60.8 °F94 %29.96 in1.5 miCalmClear
1:43 AM62.6 °F60.8 °F94 %29.96 in0.5 miCalmFogFog
1:54 AM61.0 °F60.1 °F97 %29.95 in0.8 miCalmClear
2:04 AM62.6 °F60.8 °F94 %29.96 in1.2 miCalmClear
2:14 AM60.8 °F59.0 °F94 %29.96 in0.5 miCalmFogFog
2:26 AM60.8 °F59.0 °F94 %29.96 in0.5 miCalmFogFog
2:32 AM62.6 °F60.8 °F94 %29.96 in1.5 miCalmScattered Clouds
2:37 AM62.6 °F60.8 °F94 %29.96 in3.0 miCalmScattered Clouds
2:54 AM61.0 °F59.0 °F93 %29.95 in4.0 miCalmPartly Cloudy
2:56 AM60.8 °F59.0 °F94 %29.96 in1.8 miCalmClear
3:06 AM60.8 °F60.8 °F100 %29.96 in0.5 miCalmFogFog
3:22 AM60.8 °F59.0 °F94 %29.96 in0.5 miCalmFogFog
3:37 AM60.8 °F57.2 °F88 %29.96 in1.2 miCalmPartly Cloudy
3:42 AM60.8 °F59.0 °F94 %29.96 in3.0 miCalmScattered Clouds
3:45 AM60.8 °F59.0 °F94 %29.96 in1.8 miCalmScattered Clouds
3:50 AM60.8 °F60.8 °F100 %29.96 in0.8 miCalm0.01 inMist
3:54 AM61.0 °F60.1 °F97 %29.94 in0.5 miCalm0.01 inFogFog
4:02 AM60.8 °F60.8 °F100 %29.95 in0.2 miCalmFogFog
4:21 AM60.8 °F57.2 °F88 %29.95 in1.0 miCalmMist
4:31 AM59.0 °F57.2 °F94 %29.96 in0.5 miCalmFogFog
4:39 AM59.0 °F57.2 °F94 %29.96 in0.2 miCalmFogFog
4:49 AM60.8 °F57.2 °F88 %29.96 in0.2 miCalmFogFog
4:54 AM59.0 °F57.9 °F96 %29.94 in0.2 miCalmFogFog
5:02 AM59.0 °F57.2 °F94 %29.96 in0.2 miCalmFogFog
5:21 AM59.0 °F57.2 °F94 %29.96 in0.2 miCalmFogFog
5:36 AM60.8 °F59.0 °F94 %29.96 in0.8 miCalmOvercast
5:43 AM60.8 °F59.0 °F94 %29.96 in1.5 miCalmOvercast
5:54 AM61.0 °F60.1 °F97 %29.96 in0.5 miCalmFogFog
6:54 AM63.0 °F62.1 °F97 %29.98 in0.8 miCalmOvercast
7:54 AM66.0 °F64.0 °F93 %29.98 in1.5 miSE (140°)3.5 mphOvercast
8:31 AM66.2 °F64.4 °F94 %30.01 in1.5 miVariable4.6 mphOvercast
8:54 AM68.0 °F64.9 °F90 %30.00 in2.5 miSouth (190°)4.6 mphOvercast
9:11 AM69.8 °F64.4 °F83 %30.01 in4.0 miSouth (170°)4.6 mphMostly Cloudy
9:25 AM69.8 °F64.4 °F83 %30.00 in4.0 miSSE (160°)3.5 mphHaze
9:38 AM71.6 °F64.4 °F78 %30.01 in4.0 miSSE (160°)5.8 mphHaze
9:54 AM71.1 °F64.9 °F81 %29.99 in4.0 miSouth (170°)6.9 mphHaze
10:07 AM71.6 °F64.4 °F78 %30.00 in7.0 miSouth (180°)5.8 mphMostly Cloudy
10:54 AM73.9 °F64.0 °F71 %29.98 in9.0 miSouth (180°)6.9 mphMostly Cloudy
11:54 AM75.9 °F64.9 °F69 %29.97 in9.0 miEast (90°)4.6 mphOvercast
12:54 PM78.1 °F64.9 °F64 %29.94 in10.0 miVariable3.5 mphMostly Cloudy
1:54 PM78.8 °F64.4 °F61 %29.94 in10.0 miEast (100°)5.8 mphMostly Cloudy
2:54 PM81.0 °F64.9 °F58 %29.91 in10.0 miSE (140°)9.2 mphMostly Cloudy
3:54 PM82.0 °F64.9 °F56 %29.90 in10.0 miEast (90°)6.9 mphScattered Clouds
4:54 PM82.4 °F64.4 °F54 %29.91 in10.0 miVariable6.9 mphClear
5:54 PM82.0 °F64.0 °F54 %29.89 in10.0 miSE (140°)5.8 mphPartly Cloudy
6:54 PM81.0 °F64.0 °F56 %29.88 in10.0 miSE (130°)4.6 mphScattered Clouds
7:54 PM78.1 °F64.0 °F62 %29.87 in10.0 miEast (90°)4.6 mphPartly Cloudy
8:54 PM73.9 °F64.0 °F71 %29.87 in10.0 miESE (110°)3.5 mphScattered Clouds
9:54 PM73.0 °F64.0 °F73 %29.86 in10.0 miEast (90°)10.4 mphClear
10:54 PM73.9 °F64.0 °F71 %29.86 in10.0 miSE (130°)4.6 mphClear
11:54 PM72.0 °F64.0 °F76 %29.87 in10.0 miESE (120°)4.6 mphClear
Hourly data recorded from KSUS, located miles away from St. Louis, Missouri







STORIES FROM OUR PARTNERS